NIMIQ 4

Last updated on Thu Aug 13 2026 00:02:58 GMT+0000 (Coordinated Universal Time)

1 33373U 08044A 26224.55580139 -.00000238 00000+0 00000+0 0 9999 2 33373 0.0145 77.1006 0001789 44.7843 317.2114 1.00271951 65542
UTC large
Height (km)
Speed (km/s)
/
Latitude / Longitude
Inclination (degrees)
Orbital Period (minutes)
Azimuth
Elevation
Range (km)
Doppler Factor

Next 0 passes for location: London (51.5072 / 0.1276)

No passes found over London.
NIMIQ 4